Regional Weather Roundup
Issued by NWS Cleveland, OH

Home | Current Version | Previous Version | Graphics & Text | Print | Product List | Glossary On
Versions: 1 2 3 4 5 6 7 8 9 10 11 12 13 14 15 16 17 18 19 20 21 22 23 24 25 26 27 28 29 30 31 32 33 34 35 36 37 38 39 40 41 42 43 44 45 46 47 48 49 50
000
ASUS41 KCLE 272310
RWRCLE
OHIO REGIONAL WEATHER ROUNDUP
NATIONAL WEATHER SERVICE WILMINGTON, OH
700 PM EDT MON JUL 27 2015

NOTE: "FAIR" INDICATES FEW OR NO CLOUDS BELOW 12,000 FEET WITH NO
SIGNIFICANT WEATHER AND/OR OBSTRUCTIONS TO VISIBILITY.

OHZ001>008-015>018-024>027-034-035-043-044-280000-
   NORTHWEST OHIO

CITY           SKY/WX    TMP DP  RH WIND       PRES   REMARKS
DEFIANCE       SUNNY     86  64  47 E9        29.98F
FINDLAY        SUNNY     87  60  40 E8        29.97F
TOLEDO EXPRESS MOSUNNY   84  59  42 NE9       29.99F
TOLEDO EXEC    SUNNY     84  60  44 E8        30.00F
LIMA           MOSUNNY   84  62  47 E6        29.98F
$$

OHZ009>014-019>023-028>033-038-089-280000-
   NORTHEAST OHIO

CITY           SKY/WX    TMP DP  RH WIND       PRES   REMARKS
CLE-HOPKINS    MOSUNNY   82  62  50 NE15      30.01S
CLE-LAKEFRONT  SUNNY     80  70  71 NE12      29.98F
CUY CO. ARPT   MOSUNNY   82  63  51 NE14      30.01F
LORAIN-ELYRIA  SUNNY     82  61  48 NE9       30.00F
ASHTABULA      SUNNY     82  62  50 NE8       30.02S
AKRON-CANTON   MOSUNNY   86  60  41 E5        30.00S
WOOSTER        SUNNY     85  61  44 CALM      30.00S
MANSFIELD      SUNNY     84  55  36 NE6       30.01S
YOUNGSTOWN     MOSUNNY   86  60  41 N7        30.00F
$$

OHZ042-051>053-060>062-070>072-077>081-280000-
  SOUTHWEST OHIO

CITY           SKY/WX    TMP DP  RH WIND       PRES   REMARKS
CINC-COVINGTON MOSUNNY   86  70  58 N6        29.94F HX  90
CINC-LUNKEN    MOSUNNY   84  74  71 NE7       29.93F HX  91
HAMILTON       SUNNY     86  70  58 N5        29.95F HX  90
DAYTON         PTSUNNY   82  73  74 NE8       29.98F
WRIGHT-PAT AFB MOSUNNY   81  73  76 N6        29.96F
DAYTON GENERAL   N/A    N/A N/A N/A MISG      29.96F
WILMINGTON     SUNNY     82  69  64 CALM      29.96F
$$

OHZ036-037-039>041-045>050-054>059-063>069-073>076-082>088-280000-
  CENTRAL AND SOUTHEAST OHIO

CITY           SKY/WX    TMP DP  RH WIND       PRES   REMARKS
COLUMBUS       PTSUNNY   84  69  60 NE8       29.96S
OSU AIRPORT    LGT RAIN  81  67  62 N6        29.97F
BOLTON FIELD   MOSUNNY   84  73  70 SE5       29.97F HX  91
RICKENBACK AFB PTSUNNY   77  74  89 CALM      29.96F
NEWARK         MOSUNNY   85  66  53 N7        29.97S
MARION         SUNNY     86  59  39 N3        29.99F
LANCASTER      MOSUNNY   84  71  65 E3        29.97S
ZANESVILLE     SUNNY     85  67  54 N5        29.97S
NEW PHILLY     SUNNY     86  64  47 N5        29.98F
$$


USA.gov is the U.S. government's official web portal to all federal, state and local government web resources and services.